Needles, CA

4:24 PM PDT on May 25, 2018 (GMT -0700)
Needles

Weather History for KEED - October, 2013

Change the Weather History Date:

Saturday, October 12, 2013

  Actual Average Record
Temperature  
Mean Temperature 70 °F 76 °F  
Max Temperature 84 °F 89 °F 102 °F (1950)
Min Temperature 55 °F 63 °F 40 °F (1924)
Degree Days  
Heating Degree Days 0    
Cooling Degree Days 4    
Growing Degree Days 20 (Base 50)    
Moisture  
Dew Point 36 °F    
Average Humidity 30    
Maximum Humidity 49    
Minimum Humidity 16    
Precipitation  
Precipitation 0.00 in 0.01 in 0.37 in (1947)
Month to date precipitation 0.10  
Year to date precipitation 3.55  
Sea Level Pressure  
Sea Level Pressure 29.83 in    
Wind  
Wind Speed 5 mph (SW)    
Max Wind Speed 13 mph    
Max Gust Speed -    
Visibility 10 miles    
Events      
T = Trace of Precipitation, MM = Missing Value Source: NWS Daily Summary

Daily Weather History Graph

Daily Weather History Graph

Search for Another Location

Airport or City:

Astronomy

Oct. 12, 2013 Rise Set
Actual Time 6:42 AM PDT 6:07 PM PDT
Civil Twilight 6:16 AM PDT 6:32 PM PDT
Nautical Twilight 5:47 AM PDT 7:01 PM PDT
Astronomical Twilight 5:18 AM PDT 7:30 PM PDT
Moon 2:06 PM PDT (10/12) 12:04 AM PDT (10/12)
Length of Visible Light 12h 15m
Length of Day
11h 25m
First Quarter, 60% of the Moon is Illuminated
Oct 12
First Quarter
Oct 18
Full
Oct 26
Last Quarter
Nov 3
New
Nov 9
First Quarter

Hourly Weather History & Observations

Time (PDT) Temp. Dew Point Humidity Pressure Visibility Wind Dir Wind Speed Gust Speed Precip Events Conditions
12:56 AM 63.0 °F 37.0 °F 38% 29.88 in 10.0 mi SW 4.6 mph - N/A   Clear
1:56 AM 61.0 °F 37.0 °F 41% 29.87 in 10.0 mi WSW 4.6 mph - N/A   Clear
2:56 AM 60.1 °F 37.0 °F 42% 29.86 in 10.0 mi Calm Calm - N/A   Clear
3:56 AM 59.0 °F 37.0 °F 44% 29.86 in 10.0 mi WSW 4.6 mph - N/A   Clear
4:56 AM 57.0 °F 37.0 °F 47% 29.87 in 10.0 mi West 4.6 mph - N/A   Clear
5:56 AM 55.9 °F 37.0 °F 49% 29.88 in 10.0 mi Calm Calm - N/A   Clear
6:56 AM 55.9 °F 37.0 °F 49% 29.90 in 10.0 mi WSW 4.6 mph - N/A   Clear
7:56 AM 63.0 °F 39.0 °F 41% 29.91 in 10.0 mi Calm Calm - N/A   Clear
8:56 AM 66.9 °F 39.0 °F 36% 29.91 in 10.0 mi Calm Calm - N/A   Clear
9:56 AM 70.0 °F 39.0 °F 32% 29.91 in 10.0 mi ENE 4.6 mph - N/A   Clear
10:56 AM 73.9 °F 39.9 °F 29% 29.90 in 10.0 mi North 6.9 mph - N/A   Clear
11:56 AM 77.0 °F 39.0 °F 25% 29.87 in 10.0 mi NNE 8.1 mph - N/A   Clear
12:56 PM 80.1 °F 37.0 °F 21% 29.84 in 10.0 mi Calm Calm - N/A   Clear
1:56 PM 82.0 °F 36.0 °F 19% 29.81 in 10.0 mi Variable 3.5 mph - N/A   Clear
2:56 PM 84.0 °F 33.1 °F 16% 29.78 in 10.0 mi SE 6.9 mph - N/A   Clear
3:56 PM 84.0 °F 34.0 °F 17% 29.77 in 10.0 mi Variable 6.9 mph - N/A   Clear
4:56 PM 82.9 °F 35.1 °F 18% 29.76 in 10.0 mi East 8.1 mph - N/A   Clear
5:56 PM 81.0 °F 33.1 °F 18% 29.76 in 10.0 mi ESE 6.9 mph - N/A   Clear
6:56 PM 78.1 °F 33.1 °F 19% 29.77 in 10.0 mi South 8.1 mph - N/A   Clear
7:56 PM 75.0 °F 33.1 °F 22% 29.77 in 10.0 mi SW 8.1 mph - N/A   Clear
8:56 PM 73.0 °F 30.9 °F 21% 29.78 in 10.0 mi WSW 12.7 mph - N/A   Clear
9:56 PM 72.0 °F 30.9 °F 22% 29.78 in 10.0 mi WSW 10.4 mph - N/A   Clear
10:56 PM 73.0 °F 33.1 °F 23% 29.78 in 10.0 mi SW 8.1 mph - N/A   Clear
11:56 PM 71.1 °F 32.0 °F 24% 29.78 in 10.0 mi WSW 9.2 mph - N/A   Clear